Location: Chamerau
(49.1969°N, 12.7525°E)
Time: 07:41:48
(UTC+00:00)

SWAS - Pass Details

Date: 18 September 2020
Orbit: 581 x 590 km, 69.9° (Epoch: 27 October)

Event Time Altitude Azimuth Distance (km) Brightness Sun altitude
Rises 19:32:04 0° 328° (NNW) 2,829 9.0 -22.1°
Reaches altitude 10° 19:34:19 10° 327° (NNW) 1,923 8.0 -22.4°
Maximum altitude 19:38:37 78° 242° (WSW) 605 4.4 -23.0°
Enters shadow 19:38:55 73° 196° (SSW) 618 4.4 -23.1°
